When you browse on this site, cookies collect data to enhance your experience and personalize the content and advertising you see.
Visit our Privacy Policy to learn more. By continuing to use the site, you agree to this use of cookies and data.
EN

Hourly Weather Malanville

Today, 12 August, Wednesday

Time Temperature Precipitation Wind Pressure Humidity
00:00 +24°C° 0 mm 2 mps 745 mmHg 92%
01:00 +24°C° 0 mm 2 mps 745 mmHg 93%
02:00 +24°C° 0 mm 1 mps 745 mmHg 93%
03:00 +24°C° 0 mm 1 mps 745 mmHg 94%
04:00 +24°C° 0 mm 1 mps 745 mmHg 94%
05:00 +24°C° 0 mm 1 mps 745 mmHg 93%
06:00 +24°C° 0 mm 2 mps 745 mmHg 93%
07:00 +25°C° 0 mm 2 mps 746 mmHg 88%
08:00 +26°C° 0 mm 2 mps 746 mmHg 82%
09:00 +28°C° 0 mm 3 mps 746 mmHg 77%
10:00 +29°C° 0 mm 3 mps 746 mmHg 72%
11:00 +30°C° 0 mm 2 mps 746 mmHg 67%
12:00 +31°C° 0 mm 2 mps 745 mmHg 62%
13:00 +31°C° 0 mm 2 mps 745 mmHg 61%
14:00 +32°C° 0 mm 1 mps 744 mmHg 60%
15:00 +32°C° 0 mm 1 mps 744 mmHg 59%
16:00 +31°C° 0 mm 1 mps 744 mmHg 63%
17:00 +30°C° 0 mm 1 mps 744 mmHg 68%
18:00 +29°C° 0 mm 1 mps 744 mmHg 73%
19:00 +28°C° 0 mm 1 mps 744 mmHg 75%
20:00 +27°C° 0 mm 1 mps 744 mmHg 78%
21:00 +27°C° 0 mm 1 mps 745 mmHg 80%
22:00 +26°C° 0 mm 1 mps 745 mmHg 82%
23:00 +26°C° 0 mm 1 mps 745 mmHg 83%

Tomorrow, 13 August, Thursday

Time Temperature Precipitation Wind Pressure Humidity
00:00 +24°C° 0 mm 0 mps 745 mmHg 84%
01:00 +26°C° 0 mm 1 mps 744 mmHg 84%
02:00 +26°C° 0 mm 1 mps 744 mmHg 84%
03:00 +25°C° 0 mm 1 mps 744 mmHg 85%
04:00 +25°C° 0 mm 1 mps 744 mmHg 85%
05:00 +25°C° 0 mm 2 mps 744 mmHg 85%
06:00 +25°C° 0 mm 2 mps 745 mmHg 85%
07:00 +27°C° 0 mm 3 mps 745 mmHg 80%
08:00 +29°C° 0 mm 3 mps 745 mmHg 75%
09:00 +30°C° 0 mm 4 mps 745 mmHg 69%
10:00 +33°C° 0 mm 4 mps 745 mmHg 65%
11:00 +34°C° 0 mm 4 mps 744 mmHg 60%
12:00 +35°C° 0 mm 3 mps 744 mmHg 55%
13:00 +35°C° 0.4 mm 3 mps 743 mmHg 57%
14:00 +35°C° 0.4 mm 3 mps 743 mmHg 58%
15:00 +35°C° 0.4 mm 3 mps 742 mmHg 59%
16:00 +33°C° 1.2 mm 3 mps 742 mmHg 66%
17:00 +30°C° 1.2 mm 3 mps 742 mmHg 74%
18:00 +29°C° 1.2 mm 3 mps 742 mmHg 81%
19:00 +28°C° 0.4 mm 3 mps 742 mmHg 83%
20:00 +28°C° 0.4 mm 3 mps 743 mmHg 85%
21:00 +27°C° 0.4 mm 3 mps 743 mmHg 86%
22:00 +27°C° 1.2 mm 3 mps 743 mmHg 88%
23:00 +26°C° 1.2 mm 3 mps 743 mmHg 89%

Day after tomorrow, 14 August, Friday

Time Temperature Precipitation Wind Pressure Humidity
00:00 +26°C° 1.2 mm 3 mps 743 mmHg 91%
01:00 +25°C° 5.3 mm 3 mps 743 mmHg 92%
02:00 +23°C° 5.3 mm 4 mps 743 mmHg 94%
03:00 +23°C° 5.3 mm 5 mps 742 mmHg 95%
04:00 +23°C° 0.6 mm 4 mps 742 mmHg 94%
05:00 +23°C° 0.6 mm 4 mps 742 mmHg 92%
06:00 +24°C° 0.6 mm 3 mps 742 mmHg 90%
07:00 +25°C° 0 mm 3 mps 742 mmHg 87%
08:00 +26°C° 0 mm 3 mps 743 mmHg 84%
09:00 +27°C° 0 mm 3 mps 743 mmHg 81%
10:00 +29°C° 0 mm 3 mps 743 mmHg 75%
11:00 +30°C° 0 mm 3 mps 743 mmHg 70%
12:00 +31°C° 0 mm 3 mps 742 mmHg 65%
13:00 +31°C° 0 mm 2 mps 742 mmHg 66%
14:00 +31°C° 0 mm 2 mps 741 mmHg 67%
15:00 +31°C° 0 mm 2 mps 740 mmHg 69%
16:00 +30°C° 0 mm 3 mps 741 mmHg 73%
17:00 +29°C° 0 mm 3 mps 741 mmHg 77%
18:00 +28°C° 0 mm 4 mps 741 mmHg 82%
19:00 +27°C° 0.6 mm 4 mps 741 mmHg 85%
20:00 +26°C° 0.6 mm 3 mps 742 mmHg 89%
21:00 +25°C° 0.6 mm 3 mps 742 mmHg 93%
22:00 +25°C° 0.3 mm 3 mps 742 mmHg 93%
23:00 +25°C° 0.3 mm 3 mps 742 mmHg 94%

15 August, Saturday

Time Temperature Precipitation Wind Pressure Humidity
00:00 +25°C° 0.3 mm 2 mps 742 mmHg 94%
01:00 +25°C° 0.5 mm 3 mps 742 mmHg 94%
02:00 +24°C° 0.5 mm 3 mps 741 mmHg 94%
03:00 +23°C° 0.5 mm 4 mps 741 mmHg 94%
04:00 +23°C° 0.6 mm 4 mps 741 mmHg 94%
05:00 +24°C° 0.6 mm 3 mps 742 mmHg 94%
06:00 +24°C° 0.6 mm 3 mps 742 mmHg 94%
07:00 +25°C° 0 mm 3 mps 742 mmHg 89%
08:00 +27°C° 0 mm 4 mps 743 mmHg 85%
09:00 +28°C° 0 mm 4 mps 743 mmHg 80%
10:00 +29°C° 0 mm 4 mps 743 mmHg 76%
11:00 +30°C° 0 mm 4 mps 743 mmHg 72%
12:00 +31°C° 0 mm 3 mps 743 mmHg 68%
13:00 +31°C° 0.1 mm 3 mps 742 mmHg 67%
14:00 +33°C° 0.1 mm 3 mps 742 mmHg 66%
15:00 +32°C° 0.1 mm 2 mps 741 mmHg 64%
16:00 +31°C° 0.1 mm 2 mps 741 mmHg 69%
17:00 +30°C° 0.1 mm 2 mps 741 mmHg 74%
18:00 +29°C° 0.1 mm 2 mps 741 mmHg 78%
19:00 +28°C° 0 mm 3 mps 742 mmHg 80%
20:00 +28°C° 0 mm 3 mps 742 mmHg 83%
21:00 +27°C° 0 mm 3 mps 743 mmHg 85%
22:00 +27°C° 0 mm 3 mps 743 mmHg 86%
23:00 +27°C° 0 mm 3 mps 743 mmHg 87%

16 August, Sunday

Time Temperature Precipitation Wind Pressure Humidity
00:00 +26°C° 0 mm 3 mps 743 mmHg 88%
01:00 +26°C° 0 mm 3 mps 743 mmHg 87%
02:00 +26°C° 0 mm 3 mps 743 mmHg 87%
03:00 +25°C° 0 mm 4 mps 743 mmHg 86%
04:00 +25°C° 0 mm 3 mps 743 mmHg 87%
05:00 +24°C° 0 mm 3 mps 743 mmHg 89%
06:00 +24°C° 0 mm 3 mps 743 mmHg 90%
07:00 +25°C° 0 mm 4 mps 743 mmHg 85%
08:00 +27°C° 0 mm 4 mps 744 mmHg 81%
09:00 +28°C° 0 mm 5 mps 744 mmHg 76%
10:00 +29°C° 0 mm 5 mps 744 mmHg 72%
11:00 +32°C° 0 mm 5 mps 743 mmHg 67%
12:00 +33°C° 0 mm 5 mps 743 mmHg 63%
13:00 +33°C° 0 mm 4 mps 742 mmHg 62%
14:00 +33°C° 0 mm 4 mps 741 mmHg 61%
15:00 +33°C° 0 mm 3 mps 741 mmHg 61%
16:00 +33°C° 0 mm 3 mps 741 mmHg 66%
17:00 +31°C° 0 mm 2 mps 741 mmHg 70%
18:00 +30°C° 0 mm 2 mps 741 mmHg 75%
19:00 +29°C° 0 mm 2 mps 742 mmHg 77%
20:00 +28°C° 0 mm 2 mps 742 mmHg 79%
21:00 +28°C° 0 mm 3 mps 743 mmHg 82%
22:00 +27°C° 0 mm 3 mps 742 mmHg 83%
23:00 +27°C° 0 mm 3 mps 742 mmHg 85%

17 August, Monday

Time Temperature Precipitation Wind Pressure Humidity
00:00 +26°C° 0 mm 3 mps 742 mmHg 87%
01:00 +26°C° 0 mm 3 mps 742 mmHg 84%
02:00 +27°C° 0 mm 3 mps 742 mmHg 82%
03:00 +27°C° 0 mm 3 mps 742 mmHg 80%
04:00 +26°C° 0 mm 3 mps 742 mmHg 81%
05:00 +26°C° 0 mm 3 mps 742 mmHg 82%
06:00 +26°C° 0 mm 3 mps 742 mmHg 84%
07:00 +27°C° 0 mm 3 mps 743 mmHg 78%
08:00 +29°C° 0 mm 4 mps 743 mmHg 73%
09:00 +30°C° 0 mm 4 mps 743 mmHg 67%
10:00 +33°C° 0 mm 4 mps 743 mmHg 63%
11:00 +34°C° 0 mm 4 mps 742 mmHg 59%
12:00 +35°C° 0 mm 4 mps 742 mmHg 55%
13:00 +35°C° 0 mm 3 mps 741 mmHg 56%
14:00 +35°C° 0 mm 3 mps 741 mmHg 56%
15:00 +35°C° 0 mm 2 mps 740 mmHg 57%
16:00 +34°C° 0 mm 2 mps 740 mmHg 61%
17:00 +32°C° 0 mm 1 mps 741 mmHg 65%
18:00 +31°C° 0 mm 1 mps 741 mmHg 70%
19:00 +30°C° 0 mm 1 mps 741 mmHg 71%
20:00 +30°C° 0 mm 1 mps 742 mmHg 72%
21:00 +29°C° 0 mm 2 mps 742 mmHg 73%
22:00 +29°C° 0.1 mm 2 mps 742 mmHg 75%
23:00 +28°C° 0.1 mm 2 mps 742 mmHg 77%
Show more